Starlink 2222

operational
NORAD ID: 48572 Int'l Des: 2021-041 Owner: SPXS Country: US Constellation: starlink
LEOCIRCULARSTARLINK_TYPE

Starlink 2222について

説明を読み込み中...

リアルタイム位置

3D地球を読み込み中...

次回通過

高度履歴

Altitude vs Time

uPlot chart will show altitude changes over time

軌道要素

1 48572U 21041V 25354.66965311 -.00009677 00000-0 -63110-3 0 9995
2 48572 53.0566 136.3535 0001309 83.7957 276.3181 15.06432603253155
Epoch: Dec 20, 2025 • Age: 10 hours

現在のステータス

高度 551.7 km
速度 7.59 km/s
衛星直下点 48.11°N, 136.3°E
打ち上げ日 May 15, 2021
運用期間 4.5 years
タイプ internet

技術仕様

分類 Payload
質量 260.00 kg
乾燥質量 248.00 kg
総質量 260.00 kg
長さ 0.20 m
直径 2.80 m
スパン 9.00 m
形状 Box + pan
製造者 SPXS
バスタイプ Starlink
フェーズステータス In Orbit
所有者/国 SPXS/US

大規模コンステレーション

Loading constellations...